Weather History for Minneapolis, MN

Change the Weather History Date:

Sunday, December 9, 2012

  Actual Average Record
Temperature  
Mean Temperature 26 °F 22 °F  
Max Temperature 32 °F 29 °F 58 °F (1939)
Min Temperature 20 °F 14 °F -27 °F (1876)
Degree Days  
Heating Degree Days 39 43  
Month to date heating degree days 280 375  
Since 1 July heating degree days 1768 1994  
Cooling Degree Days 0 0  
Month to date cooling degree days 0 0  
Year to date cooling degree days 1131 753  
Moisture  
Dew Point 28 °F    
Average Humidity 86    
Maximum Humidity 100    
Minimum Humidity 72    
Precipitation  
Precipitation 0.20 in 0.04 in 1.19 in (1899)
Month to date precipitation 0.07 0.38  
Year to date precipitation 28.02 29.83  
Snow  
Snow 10.50 in 0.50 in 10.50 in (2012)
Month to date snowfall 11.3 3.7  
Since 1 July snowfall 12.1 13.6  
Snow Depth 11.00 in    
Sea Level Pressure  
Sea Level Pressure 29.93 in    
Wind  
Wind Speed 13 mph (ENE)    
Max Wind Speed 22 mph    
Max Gust Speed 29 mph    
Visibility 1 miles    
Events Fog , Snow    
T = Trace of Precipitation, MM = Missing Value Source: NWS Daily Summary

Daily Weather History Graph

Daily Weather History Graph

Search for Another Location

Airport:

Trip Planner

Search our weather history database for the weather conditions in past years. The results will help you decide how hot, cold, wet, or windy it might be!

Date:

Astronomy

Dec. 09, 2012 Rise Set
Actual Time 7:39 AM CST 4:31 PM CST
Civil Twilight 7:05 AM CST 5:05 PM CST
Nautical Twilight 6:28 AM CST 5:42 PM CST
Astronomical Twilight 5:53 AM CST 6:17 PM CST
Moon 3:04 AM CST (12/9) 1:45 PM CST (12/9)
Length of Visible Light 9h 59m
Length of Day
8h 52m
Waning Crescent, 18% of the Moon is Illuminated
Dec 9
Waning Crescent
Dec 13
New
Dec 19
First Quarter
Dec 28
Full
Jan 4
Last Quarter

Hourly Weather History & Observations

Time (CST) Temp. Windchill Dew Point Humidity Pressure Visibility Wind Dir Wind Speed Gust Speed Precip Events Conditions
12:24 AM 32.0 °F 24.8 °F 26.6 °F 80% 30.01 in 2.0 mi ESE 8.1 mph - 0.00 in Snow Light Snow
12:31 AM 30.2 °F 21.3 °F 26.6 °F 86% 30.01 in 1.8 mi ESE 10.4 mph - 0.00 in Snow Light Snow
12:53 AM 30.9 °F 22.2 °F 28.0 °F 89% 30.03 in 2.5 mi East 10.4 mph - 0.01 in Snow Light Snow
1:05 AM 30.2 °F 21.9 °F 28.4 °F 93% 30.00 in 1.2 mi ESE 9.2 mph - 0.00 in Snow Light Snow
1:21 AM 30.2 °F 21.3 °F 28.4 °F 93% 29.99 in 2.0 mi East 10.4 mph - 0.00 in Snow Light Snow
1:34 AM 30.2 °F 21.3 °F 28.4 °F 93% 29.99 in 1.2 mi East 10.4 mph - 0.00 in Snow Light Snow
1:48 AM 30.2 °F 20.8 °F 28.4 °F 93% 30.00 in 0.8 mi East 11.5 mph - 0.01 in Snow Light Snow
1:53 AM 30.0 °F 20.5 °F 28.9 °F 96% 30.03 in 0.8 mi East 11.5 mph - 0.01 in Snow Light Snow
2:03 AM 30.2 °F 21.3 °F 30.2 °F 100% 30.00 in 1.0 mi East 10.4 mph - 0.00 in Snow Light Snow
2:53 AM 30.0 °F 21.1 °F 28.9 °F 96% 30.01 in 1.5 mi East 10.4 mph - 0.02 in Snow Light Snow
3:10 AM 30.2 °F 22.6 °F 28.4 °F 93% 29.98 in 1.0 mi East 8.1 mph - 0.00 in Snow Light Snow
3:33 AM 30.2 °F 20.8 °F 28.4 °F 93% 29.97 in 1.0 mi East 11.5 mph - 0.01 in Snow Light Snow
3:41 AM 30.2 °F 21.3 °F 28.4 °F 93% 29.97 in 0.8 mi East 10.4 mph - 0.01 in Snow Light Snow
3:53 AM 30.0 °F 20.0 °F 28.9 °F 96% 30.00 in 1.0 mi East 12.7 mph - 0.02 in Snow Light Snow
4:13 AM 30.2 °F 19.3 °F 28.4 °F 93% 29.96 in 0.8 mi East 15.0 mph - 0.01 in Snow Light Snow
4:20 AM 30.2 °F 19.8 °F 28.4 °F 93% 29.97 in 1.0 mi East 13.8 mph - 0.01 in Snow Light Snow
4:25 AM 30.2 °F 20.8 °F 28.4 °F 93% 29.97 in 2.0 mi ESE 11.5 mph - 0.01 in Snow Light Snow
4:42 AM 30.2 °F 20.2 °F 28.4 °F 93% 29.96 in 1.2 mi East 12.7 mph - 0.02 in Snow Light Snow
4:53 AM 30.0 °F 20.0 °F 28.9 °F 96% 29.99 in 1.5 mi East 12.7 mph - 0.02 in Snow Light Snow
5:01 AM 30.2 °F 20.2 °F 28.4 °F 93% 29.96 in 1.2 mi East 12.7 mph - 0.00 in Snow Light Snow
5:18 AM 30.2 °F 19.8 °F 28.4 °F 93% 29.95 in 0.8 mi East 13.8 mph - 0.01 in Snow Light Snow
5:32 AM 30.2 °F 20.8 °F 28.4 °F 93% 29.94 in 1.0 mi East 11.5 mph - 0.01 in Snow Light Snow
5:48 AM 30.2 °F 21.3 °F 28.4 °F 93% 29.95 in 0.8 mi East 10.4 mph - 0.02 in Snow Light Snow
5:53 AM 30.0 °F 21.1 °F 30.0 °F 100% 29.98 in 0.8 mi East 10.4 mph - 0.02 in Snow Light Snow
5:56 AM 30.2 °F 21.3 °F 28.4 °F 93% 29.95 in 1.2 mi East 10.4 mph - 0.00 in Snow Light Snow
5:58 AM 30.2 °F 20.8 °F 28.4 °F 93% 29.94 in 2.0 mi East 11.5 mph - 0.00 in Snow Light Snow
6:02 AM 30.2 °F 20.8 °F 28.4 °F 93% 29.94 in 4.0 mi ESE 11.5 mph - 0.00 in Snow Light Snow
6:53 AM 30.9 °F 19.8 °F 28.9 °F 92% 29.96 in 2.0 mi ESE 16.1 mph - 0.01 in Snow Light Snow
7:01 AM 30.2 °F 20.2 °F 30.2 °F 100% 29.94 in 1.8 mi ESE 12.7 mph - 0.00 in Snow Light Snow
7:13 AM 30.2 °F 19.8 °F 30.2 °F 100% 29.93 in 1.0 mi East 13.8 mph - 0.00 in Snow Light Snow
7:46 AM 30.2 °F 19.8 °F 30.2 °F 100% 29.93 in 1.5 mi East 13.8 mph - 0.02 in Snow Light Snow
7:53 AM 30.9 °F 21.2 °F 30.0 °F 96% 29.97 in 1.2 mi East 12.7 mph - 0.02 in Snow Light Snow
8:10 AM 30.2 °F 20.8 °F 30.2 °F 100% 29.92 in 0.5 mi East 11.5 mph - 0.01 in Fog , Snow Snow
8:37 AM 30.2 °F 20.8 °F 30.2 °F 100% 29.92 in 0.2 mi East 11.5 mph - 0.02 in Fog , Snow Heavy Snow
8:53 AM 30.9 °F 21.7 °F 30.0 °F 96% 29.94 in 0.2 mi East 11.5 mph - 0.04 in Fog , Snow Snow
9:24 AM 30.2 °F 19.8 °F 30.2 °F 100% 29.91 in 0.5 mi East 13.8 mph - 0.02 in Fog , Snow Snow
9:53 AM 30.9 °F 20.2 °F 30.0 °F 96% 29.94 in 0.5 mi East 15.0 mph - 0.03 in Fog , Snow Light Snow
10:10 AM 30.2 °F 19.3 °F 30.2 °F 100% 29.91 in 0.2 mi East 15.0 mph - 0.02 in Fog , Snow Heavy Snow
10:53 AM 30.9 °F 20.7 °F 30.9 °F 100% 29.93 in 0.2 mi East 13.8 mph - 0.05 in Fog , Snow Snow
11:53 AM 30.9 °F 20.7 °F 30.9 °F 100% 29.90 in 0.2 mi East 13.8 mph - 0.05 in Fog , Snow Heavy Snow
12:53 PM 30.9 °F 22.2 °F 30.0 °F 96% 29.87 in 0.2 mi East 10.4 mph - 0.06 in Fog , Snow Heavy Snow
1:53 PM 30.9 °F 22.2 °F 30.0 °F 96% 29.85 in 0.2 mi ENE 10.4 mph - 0.03 in Fog , Snow Snow
2:53 PM 30.0 °F 20.5 °F 30.0 °F 100% 29.85 in 0.2 mi ENE 11.5 mph - 0.00 in Fog , Snow Snow
3:53 PM 30.0 °F 21.1 °F 30.0 °F 100% 29.87 in 0.2 mi NE 10.4 mph - 0.00 in Fog , Snow Snow
3:58 PM 30.2 °F 21.3 °F 30.2 °F 100% 29.84 in 0.5 mi NE 10.4 mph - 0.00 in Fog , Snow Snow
4:53 PM 30.0 °F 20.5 °F 28.9 °F 96% 29.87 in 0.8 mi NNE 11.5 mph - 0.00 in Snow Light Snow
5:23 PM 30.2 °F 20.8 °F 28.4 °F 93% 29.85 in 1.0 mi North 11.5 mph - 0.00 in Snow Light Snow
5:31 PM 30.2 °F 20.8 °F 28.4 °F 93% 29.85 in 1.0 mi NNE 11.5 mph - 0.00 in Snow Light Snow
5:53 PM 28.9 °F 18.6 °F 28.0 °F 96% 29.89 in 1.5 mi NNE 12.7 mph - 0.00 in Snow Light Snow
5:56 PM 28.4 °F 18.0 °F 28.4 °F 100% 29.86 in 1.2 mi NNE 12.7 mph - 0.00 in Snow Light Snow
6:00 PM 28.4 °F 18.0 °F 28.4 °F 100% 29.86 in 1.5 mi North 12.7 mph - 0.01 in Snow Light Snow
6:53 PM 28.9 °F 18.2 °F 28.0 °F 96% 29.89 in 1.5 mi North 13.8 mph - 0.01 in Snow Light Snow
7:10 PM 28.4 °F 18.0 °F 28.4 °F 100% 29.86 in 1.0 mi North 12.7 mph - 0.00 in Snow Light Snow
7:45 PM 28.4 °F 17.0 °F 28.4 °F 100% 29.86 in 2.0 mi North 15.0 mph - 0.00 in Snow Light Snow
7:53 PM 28.9 °F 17.7 °F 28.0 °F 96% 29.90 in 2.0 mi North 15.0 mph - 0.00 in Snow Light Snow
8:53 PM 28.9 °F 19.2 °F 27.0 °F 92% 29.90 in 1.5 mi North 11.5 mph 19.6 mph 0.00 in Snow Light Snow
9:24 PM 28.4 °F 17.0 °F 26.6 °F 93% 29.87 in 1.0 mi North 15.0 mph - 0.00 in Snow Light Snow
9:53 PM 26.1 °F 12.0 °F 24.1 °F 92% 29.91 in 1.2 mi North 20.7 mph 28.8 mph 0.00 in Snow Light Snow
10:16 PM 24.8 °F 11.9 °F 23.0 °F 93% 29.88 in 3.0 mi NNW 16.1 mph 24.2 mph 0.00 in Snow Light Snow
10:53 PM 23.0 °F 8.7 °F 21.0 °F 92% 29.93 in 3.0 mi NNW 18.4 mph - 0.00 in Snow Light Snow
11:01 PM 23.0 °F 10.6 °F 21.2 °F 93% 29.89 in 1.8 mi NNW 13.8 mph - N/A Snow Light Snow
11:17 PM 21.2 °F 7.3 °F 19.4 °F 93% 29.89 in 1.8 mi NNW 16.1 mph - 0.00 in Snow Light Snow
11:26 PM 21.2 °F 8.3 °F 19.4 °F 93% 29.89 in 2.0 mi NNW 13.8 mph 21.9 mph 0.00 in Snow Light Snow
11:42 PM 21.2 °F 6.4 °F 17.6 °F 86% 29.90 in 3.0 mi NNW 18.4 mph 26.5 mph 0.00 in Snow Light Snow
11:53 PM 19.9 °F 3.9 °F 17.1 °F 89% 29.94 in 4.0 mi NNW 20.7 mph 26.5 mph 0.00 in Snow Light Snow